Weather History for New Delhi, India

Change the Weather History Date:

Friday, January 20, 2012

  Actual Average Record
Temperature  
Mean Temperature 48 °F -  
Max Temperature 57 °F 70 °F - (-1)
Min Temperature 39 °F 49 °F - (-1)
Degree Days  
Heating Degree Days 17    
Moisture  
Dew Point 45 °F    
Average Humidity 94    
Maximum Humidity 100    
Minimum Humidity 72    
Precipitation  
Precipitation 0.00 in - - ()
Sea Level Pressure  
Sea Level Pressure 30.02 in    
Wind  
Wind Speed 4 mph ()    
Max Wind Speed 9 mph    
Max Gust Speed -    
Visibility 0.5 miles    
Events Fog    
Averages and records for this station are not official NWS values.
T = Trace of Precipitation, MM = Missing Value Source: Averaged Metar Reports

Daily Weather History Graph

Daily Weather History Graph

Search for Another Location

Airport:

Trip Planner

Search our weather history database for the weather conditions in past years. The results will help you decide how hot, cold, wet, or windy it might be!

Date:

Astronomy

Jan. 20, 2012 Rise Set
Actual Time 7:14 AM IST 5:50 PM IST
Civil Twilight 6:49 AM IST 6:15 PM IST
Nautical Twilight 6:20 AM IST 6:44 PM IST
Astronomical Twilight 5:52 AM IST 7:12 PM IST
Moon 4:19 AM IST (1/20) 2:59 PM IST (1/20)
Length of Visible Light 11h 26m
Length of Day
10h 35m
Waning Crescent, 11% of the Moon is Illuminated
Jan 20
Waning Crescent
Jan 23
New
Jan 31
First Quarter
Feb 8
Full
Feb 14
Last Quarter

Hourly Weather History & Observations

Time (IST) Temp. Windchill Dew Point Humidity Pressure Visibility Wind Dir Wind Speed Gust Speed Precip Events Conditions
12:00 AM 48.2 °F - 48.2 °F 100% 29.98 in 0.2 mi Calm Calm - N/A Fog Fog
12:30 AM 48.2 °F - 48.2 °F 100% 29.98 in 0.2 mi Calm Calm - N/A Fog Fog
1:00 AM 48.2 °F - 48.2 °F 100% 29.98 in 0.2 mi Calm Calm - N/A Fog Fog
1:30 AM 46.4 °F - 46.4 °F 100% 29.98 in 0.1 mi Calm Calm - N/A Fog Fog
2:00 AM 46.4 °F - 46.4 °F 100% 29.98 in 0.0 mi Calm Calm - N/A Fog Fog
2:30 AM 42.8 °F - 42.8 °F 100% 29.98 in - Calm Calm - N/A Fog Fog
3:00 AM 42.8 °F - 42.8 °F 100% 29.98 in - SW 2.3 mph - N/A Fog Fog
3:30 AM 41.0 °F 39.0 °F 41.0 °F 100% 29.98 in - SW 3.5 mph - N/A Fog Fog
4:00 AM 41.0 °F 39.0 °F 41.0 °F 100% 29.98 in - WSW 3.5 mph - N/A Fog Fog
4:30 AM 39.2 °F 35.9 °F 39.2 °F 100% 29.98 in - WSW 4.6 mph - N/A Fog Fog
5:00 AM 39.2 °F 37.0 °F 39.2 °F 100% 29.98 in - WSW 3.5 mph - N/A Fog Fog
5:30 AM 39.2 °F 35.0 °F 39.2 °F 100% 29.98 in - West 5.8 mph - N/A Fog Fog
6:00 AM 39.2 °F 35.9 °F 39.2 °F 100% 29.98 in - WSW 4.6 mph - N/A Fog Fog
6:30 AM 39.2 °F 35.9 °F 39.2 °F 100% 29.98 in - West 4.6 mph - N/A Fog Fog
7:00 AM 39.2 °F 35.9 °F 39.2 °F 100% 29.98 in - WSW 4.6 mph - N/A Fog Fog
8:00 AM 41.0 °F 37.1 °F 39.2 °F 93% 30.01 in - West 5.8 mph - N/A Fog Fog
8:30 AM 42.8 °F 41.1 °F 42.8 °F 100% 30.04 in - WSW 3.5 mph - N/A Fog Fog
9:00 AM 42.8 °F 40.1 °F 42.8 °F 100% 30.04 in - WSW 4.6 mph - N/A Fog Fog
9:30 AM 42.8 °F 38.6 °F 42.8 °F 100% 30.06 in 0.0 mi West 6.9 mph - N/A Fog Fog
10:00 AM 42.8 °F 39.3 °F 42.8 °F 100% 30.06 in 0.0 mi West 5.8 mph - N/A Fog Fog
10:30 AM 44.6 °F 40.2 °F 44.6 °F 100% 30.09 in 0.0 mi West 8.1 mph - N/A Fog Fog
11:00 AM 44.6 °F 39.7 °F 44.6 °F 100% 30.09 in 0.1 mi West 9.2 mph - N/A Fog Fog
11:30 AM 44.6 °F 39.7 °F 44.6 °F 100% 30.09 in 0.1 mi West 9.2 mph - N/A Fog Fog
12:00 PM 46.4 °F 42.4 °F 46.4 °F 100% 30.06 in 0.2 mi West 8.1 mph - N/A Fog Fog
12:30 PM 46.4 °F 42.4 °F 46.4 °F 100% 30.06 in 0.4 mi WNW 8.1 mph - N/A Fog Fog
1:30 PM 50.0 °F - 50.0 °F 100% 30.04 in 0.5 mi WNW 9.2 mph - N/A Fog Shallow Fog
2:30 PM 53.6 °F - 48.2 °F 82% 30.04 in 1.1 mi WNW 8.1 mph - N/A   Mist
3:00 PM 55.4 °F - 48.2 °F 77% 30.04 in 1.1 mi West 8.1 mph - N/A   Mist
3:30 PM 55.4 °F - 46.4 °F 72% 30.04 in 1.1 mi West 9.2 mph - N/A   Smoke
4:00 PM 57.2 °F - 48.2 °F 72% 30.01 in 1.2 mi West 9.2 mph - N/A   Smoke
4:30 PM 57.2 °F - 48.2 °F 72% 30.01 in 1.3 mi WNW 8.1 mph - N/A   Smoke
5:00 PM 55.4 °F - 48.2 °F 77% 30.01 in 1.3 mi WNW 8.1 mph - N/A   Smoke
5:30 PM 55.4 °F - 48.2 °F 77% 30.01 in 1.3 mi West 6.9 mph - N/A   Mist
6:00 PM 53.6 °F - 48.2 °F 82% 30.01 in 1.0 mi West 6.9 mph - N/A   Mist
7:00 PM 51.8 °F - 48.2 °F 88% 30.01 in 0.9 mi West 4.6 mph - N/A   Mist
7:30 PM 50.0 °F - 48.2 °F 94% 30.01 in 0.7 mi West 5.8 mph - N/A   Mist
8:00 PM 50.0 °F - 46.4 °F 87% 30.04 in 0.7 mi West 5.8 mph - N/A   Mist
8:30 PM 48.2 °F - 46.4 °F 93% 30.04 in 0.6 mi West 5.8 mph - N/A   Mist
9:00 PM 48.2 °F - 48.2 °F 100% 30.04 in 0.6 mi West 4.6 mph - N/A   Mist
9:30 PM 44.6 °F 41.4 °F 44.6 °F 100% 30.04 in 0.6 mi West 5.8 mph - N/A   Mist
11:00 PM 50.0 °F - 46.4 °F 87% 30.04 in 0.2 mi WNW 5.8 mph - N/A Fog Fog
11:30 PM 48.2 °F - 46.4 °F 93% 30.06 in 0.2 mi West 6.9 mph - N/A Fog Fog